マクノート彗星

P/2009 S2 ( McNaught )

English version
Home page
Updated on March 17, 2010

---------------------------------------------------------------------

・ プロフィール

発見日 2009年9月20日
発見光度 18.7等
発見者 R. H. McNaught (Siding Spring Survey)

・ 軌道要素

Epoch 2009 June 18.0 TT = JDT 2455000.5
T 2009 June 23.63760 TT                                 MPC
q   2.2036375            (2000.0)            P               Q
n   0.11607730     Peri.  230.37347     +0.91102858     +0.07380054
a   4.1620234      Node   121.61400     -0.02666958     +0.99233904
e   0.4705370      Incl.   28.44927     -0.41147984     +0.09907931
P   8.49

・ 光度変化

        m1 = 14.0 + 5 logΔ + 10.0 log r

---------------------------------------------------------------------

軌道要素はM.P.E.C. 2009-S154に掲載されたものです。
光度グラフはComet for Windowsで作成したものです。

---------------------------------------------------------------------

Copyright(C) Seiichi Yoshida (comet@aerith.net). All rights reserved.